Terminal Aerodrome Forecast
Issued by NWS Omaha/Valley, NE

Home | Current Version | Previous Version | Graphics & Text | Print | Product List | Glossary On
Versions: 1 2 3 4 5 6 7 8 9 10 11 12 13 14 15 16 17 18 19 20 21 22 23 24 25 26 27 28 29 30 31 32 33 34 35 36 37 38 39 40 41 42 43 44 45
000
FTUS43 KOAX 021540 AAB
TAFOFK
TAF AMD
KOFK 021540Z 0216/0312 12009KT 5SM -SHRA BR OVC005
      TEMPO 0216/0217 5SM -TSRA BKN015CB
     FM021700 10007KT P6SM -SHRA BKN015
      TEMPO 0218/0220 P6SM NSW BKN035
     FM022000 07007KT P6SM OVC040
     FM030500 VRB04KT 5SM BR OVC035=

USA.gov is the U.S. government's official web portal to all federal, state and local government web resources and services.